Flag for Colombia Weather past 2 weeks in Buenaventura, Colombia

Now
82 °F

Partly sunny.


Feels Like: 85 °F
Forecast: 76 / 90 °F
Wind: 5 mph from West

Location: Cali / Alfonso Bonillaaragon

Current Time: Jul 22, 2014 at 11:03:57 AM

Latest Report: Jul 22, 2014 at 10:00 AM


Visibility: N/A

Pressure: 29.97 "Hg

Humidity: 58%

Dew point: 66 °F

Location of BuenaventuraLocation

Historic Weather in Buenaventura — Graph

°F

Buenaventura temperature yesterday

Maximum temperature yesterday: 91 °F (at 2:00 PM)
Minimum temperature yesterday: 68 °F (at 3:00 AM)
Average temperature yesterday: 77 °F

Past Weeks' High & Low Weather Summary

 TemperatureHumidityPressure
High93 °F (Jul 18, 3:00 PM)94% (Jul 8, 6:00 AM)30.05 "Hg (Jul 8, 6:00 AM)
Low64 °F (Jul 19, 5:00 AM)32% (Jul 18, 3:00 PM)29.77 "Hg (Jul 8, 4:00 PM)
Average77 °F71%29.94 "Hg
* Reported Jul 7 10:00 AM — Jul 22 10:00 AM, Buenaventura, Weather by CustomWeather, © 2014

Note: Actual official high and low records may vary slightly from our data, if they occured in-between our weather recording intervals... More about our weather records

Advertising

Buenaventura weather history for previous 24 hours

 ConditionsComfort  
Time TempWeatherWind HumidityBarometerVisibility
10:00 AM
Jul 22
82 °FPartly sunny.5 mph58%29.97 "HgN/A
9:00 AM77 °FBroken clouds.No wind74%29.97 "HgN/A
8:00 AM73 °FPartly sunny.5 mph78%29.97 "HgN/A
7:00 AM72 °FPartly sunny.3 mph83%29.96 "HgN/A
6:00 AM70 °FPassing clouds.3 mph88%29.95 "Hg6 mi
5:00 AM70 °FPassing clouds.No wind88%29.94 "Hg6 mi
4:00 AM70 °FPassing clouds.3 mph88%29.93 "Hg6 mi
3:00 AM70 °FPassing clouds.No wind88%29.92 "Hg6 mi
2:00 AM70 °FPassing clouds.No wind88%29.92 "Hg6 mi
1:00 AM73 °FPassing clouds.5 mph83%29.94 "HgN/A
12:00 AM72 °FPassing clouds.6 mph83%29.95 "Hg6 mi
11:00 PM
Jul 21
73 °FPassing clouds.6 mph78%29.96 "HgN/A
10:00 PM73 °FPassing clouds.7 mph78%29.95 "HgN/A
9:00 PM73 °FPassing clouds.5 mph83%29.94 "HgN/A
8:00 PM75 °FPassing clouds.12 mph78%29.92 "HgN/A
7:00 PM79 °FScattered showers. Passing clouds.12 mph65%29.88 "HgN/A
6:00 PM82 °FPartly sunny.8 mph55%29.86 "HgN/A
5:00 PM84 °FPartly sunny.9 mph51%29.85 "HgN/A
4:00 PM86 °FPartly sunny.7 mph49%29.84 "HgN/A
3:00 PM86 °FPartly sunny.7 mph49%29.84 "HgN/A
2:00 PM91 °FPartly sunny.6 mph38%29.86 "HgN/A
1:00 PM88 °FPartly sunny.3 mph43%29.90 "HgN/A
12:00 PM84 °FPartly sunny.No wind55%29.94 "HgN/A
11:00 AM82 °FPartly sunny.3 mph58%29.97 "HgN/A
Weather by CustomWeather, © 2014

See weather overviewHow to use our weather pages